K0WOI Weather Reports


Display with metric or nautical units.
time (UTC)temp
F
wind
direction
speed
MPH
gust
MPH
rain 1hr
in
rain 24hr
in
rain mn
in
humidity
%
barometer
mb
20260506134933 44 324 1.0 1.0 0.00 0.00 0.00 55 1017.7
20260506134429 44 315 1.0 1.0 0.00 0.00 0.00 57 1017.6
20260506133926 43 323 1.0 1.0 0.00 0.00 0.00 59 1017.5
20260506133423 43 319 0.0 1.0 0.00 0.00 0.00 59 1017.5
20260506132920 43 316 2.0 2.0 0.00 0.00 0.00 60 1017.4
20260506132417 42 327 1.0 1.0 0.00 0.00 0.00 64 1017.5
20260506131914 41 323 1.0 1.0 0.00 0.00 0.00 65 1017.2
20260506131411 41 322 1.0 1.0 0.00 0.00 0.00 66 1017.3
20260506130908 40 323 0.0 1.0 0.00 0.00 0.00 69 1017.2
20260506130404 40 323 2.0 2.0 0.00 0.00 0.00 69 1017.3
20260506125902 40 324 0.0 1.0 0.00 0.00 0.00 71 1017.2
20260506125401 39 324 2.0 3.0 0.00 0.00 0.00 69 1017.3
20260506124858 38 322 1.0 2.0 0.00 0.00 0.00 71 1017.0
20260506124355 38 321 0.0 1.0 0.00 0.00 0.00 72 1017.1
20260506123853 37 320 2.0 2.0 0.00 0.00 0.00 72 1017.2
20260506123351 37 320 1.0 2.0 0.00 0.00 0.00 74 1017.0
20260506122848 37 320 1.0 1.0 0.00 0.00 0.00 75 1016.8
20260506122345 37 320 1.0 1.0 0.00 0.00 0.00 75 1016.8
20260506121843 36 320 1.0 1.0 0.00 0.00 0.00 76 1016.7
20260506121340 36 320 0.0 0.0 0.00 0.00 0.00 83 1016.7
20260506120837 36 320 0.0 0.0 0.00 0.00 0.00 85 1016.6
20260506120334 36 320 0.0 0.0 0.00 0.00 0.00 84 1016.6
20260506115831 36 320 0.0 0.0 0.00 0.00 0.00 83 1016.5
20260506115330 36 320 0.0 0.0 0.00 0.00 0.00 81 1016.3
20260506114828 36 320 0.0 0.0 0.00 0.00 0.00 80 1016.2
20260506114325 36 320 0.0 0.0 0.00 0.00 0.00 79 1016.2
20260506113824 37 320 0.0 0.0 0.00 0.00 0.00 79 1016.4
20260506113321 37 320 1.0 1.0 0.00 0.00 0.00 75 1016.1
20260506112817 37 319 0.0 0.0 0.00 0.00 0.00 77 1016.3
20260506112314 37 319 0.0 0.0 0.00 0.00 0.00 75 1015.9
20260506111812 37 319 0.0 1.0 0.00 0.00 0.00 76 1016.1
20260506111310 37 319 0.0 0.0 0.00 0.00 0.00 74 1016.1
20260506110807 37 319 1.0 1.0 0.00 0.00 0.00 73 1016.1
20260506110304 37 319 1.0 2.0 0.00 0.00 0.00 74 1016.0
20260506105800 38 319 0.0 0.0 0.00 0.00 0.00 75 1015.8
20260506105257 38 319 0.0 0.0 0.00 0.00 0.00 74 1015.6
20260506104755 38 319 0.0 0.0 0.00 0.00 0.00 73 1015.4
20260506104253 38 319 0.0 0.0 0.00 0.00 0.00 74 1015.8
20260506103750 38 319 0.0 0.0 0.00 0.00 0.00 74 1015.6
20260506103247 38 319 0.0 0.0 0.00 0.00 0.00 73 1015.6
20260506102745 38 319 0.0 0.0 0.00 0.00 0.00 73 1015.7
20260506102243 38 319 1.0 1.0 0.00 0.00 0.00 73 1015.4
20260506101739 38 319 0.0 1.0 0.00 0.00 0.00 73 1015.7
20260506101235 38 319 0.0 0.0 0.00 0.00 0.00 72 1015.5
20260506100734 38 319 0.0 0.0 0.00 0.00 0.00 72 1015.4
20260506100232 38 319 1.0 1.0 0.00 0.00 0.00 73 1015.5
20260506095730 38 319 0.0 0.0 0.00 0.00 0.00 74 1015.4
20260506095226 39 320 0.0 0.0 0.00 0.00 0.00 71 1015.3
20260506094723 39 319 0.0 1.0 0.00 0.00 0.00 71 1015.3
20260506094221 39 319 0.0 0.0 0.00 0.00 0.00 70 1015.0
20260506093720 39 319 0.0 0.0 0.00 0.00 0.00 70 1015.1
20260506093216 39 319 0.0 1.0 0.00 0.00 0.00 69 1015.2
20260506092714 39 319 0.0 0.0 0.00 0.00 0.00 69 1015.4
20260506092212 39 319 0.0 0.0 0.00 0.00 0.00 69 1015.2
20260506091709 39 319 0.0 0.0 0.00 0.00 0.00 68 1015.3
20260506091206 39 319 0.0 1.0 0.00 0.00 0.00 67 1015.3
20260506090704 39 319 0.0 0.0 0.00 0.00 0.00 67 1015.2
20260506090201 39 319 1.0 1.0 0.00 0.00 0.00 66 1015.0
20260506085658 39 319 0.0 0.0 0.00 0.00 0.00 68 1015.0
20260506085153 39 318 1.0 1.0 0.00 0.00 0.00 68 1014.8
20260506084650 39 318 1.0 1.0 0.00 0.00 0.00 69 1014.7
20260506084147 39 318 0.0 0.0 0.00 0.00 0.00 68 1014.9
20260506083644 39 318 1.0 1.0 0.00 0.00 0.00 68 1014.9
20260506083142 39 318 2.0 2.0 0.00 0.00 0.00 68 1014.8
20260506082638 38 318 1.0 1.0 0.00 0.00 0.00 69 1014.8
20260506082134 38 318 1.0 1.0 0.00 0.00 0.00 70 1014.4
20260506081632 38 318 0.0 0.0 0.00 0.00 0.00 71 1014.4
20260506081130 38 318 0.0 0.0 0.00 0.00 0.00 72 1014.4
20260506080627 37 318 1.0 1.0 0.00 0.00 0.00 74 1014.3
20260506080124 37 318 0.0 0.0 0.00 0.00 0.00 80 1014.2
20260506073108 36 318 0.0 0.0 0.00 0.00 0.00 89 1014.4
20260506072604 36 318 0.0 0.0 0.00 0.00 0.00 88 1014.3
20260506072102 36 318 0.0 0.0 0.00 0.00 0.00 87 1014.0
20260506071559 36 318 0.0 0.0 0.00 0.00 0.00 87 1014.3
20260506071057 37 318 0.0 0.0 0.00 0.00 0.00 87 1014.3
20260506070554 37 318 0.0 0.0 0.00 0.00 0.00 86 1014.2
20260506062028 38 318 0.0 0.0 0.00 0.00 0.00 76 1014.2
20260506061524 39 318 0.0 0.0 0.00 0.00 0.00 76 1014.3
20260506061022 39 318 0.0 0.0 0.00 0.00 0.00 70 1014.2
20260506060520 40 318 0.0 0.0 0.00 0.00 0.00 73 1013.9
20260506050949 42 318 0.0 0.0 0.00 0.00 0.00 63 1013.4
20260506050447 42 318 1.0 1.0 0.00 0.00 0.00 60 1013.5
20260506044937 42 318 0.0 0.0 0.00 0.02 0.02 68 1013.1
20260506044435 43 318 0.0 0.0 0.00 0.02 0.02 64 1013.2
20260506043931 43 318 0.0 0.0 0.00 0.02 0.02 64 1013.0
20260506043429 42 318 0.0 0.0 0.00 0.02 0.02 66 1013.2
20260506042927 43 318 0.0 0.0 0.00 0.02 0.02 66 1013.1
20260506042426 43 318 0.0 0.0 0.00 0.02 0.02 62 1012.9
20260506041924 43 318 0.0 0.0 0.00 0.02 0.02 61 1012.9
20260506041421 44 318 0.0 0.0 0.00 0.02 0.02 64 1013.1
20260506040918 44 318 0.0 0.0 0.00 0.02 0.02 63 1013.2
20260506040416 45 318 0.0 0.0 0.00 0.02 0.02 63 1013.1
20260506035911 46 317 0.0 0.0 0.00 0.02 0.02 54 1012.9
20260506035409 46 317 0.0 1.0 0.00 0.02 0.02 48 1013.0
20260506034906 47 317 0.0 1.0 0.00 0.02 0.02 45 1012.7
20260506034403 47 317 0.0 1.0 0.00 0.02 0.02 45 1012.6
20260506033900 47 316 1.0 1.0 0.00 0.02 0.02 45 1012.6
20260506033357 47 321 2.0 2.0 0.00 0.02 0.02 44 1012.8
20260506032854 47 321 0.0 1.0 0.00 0.02 0.02 45 1012.7
20260506032351 47 321 0.0 0.0 0.00 0.02 0.02 45 1012.7
20260506031848 48 321 0.0 0.0 0.00 0.02 0.02 44 1012.3
20260506031345 48 321 1.0 1.0 0.00 0.02 0.02 44 1012.9
20260506030842 48 320 1.0 1.0 0.00 0.02 0.02 43 1012.4
20260506030340 49 319 2.0 2.0 0.00 0.02 0.02 43 1012.7
20260506025837 49 317 2.0 3.0 0.00 0.02 0.02 42 1012.2
20260506025333 50 317 3.0 3.0 0.00 0.02 0.02 41 1012.4
20260506024830 50 323 1.0 2.0 0.00 0.02 0.02 41 1012.3
20260506024327 50 321 3.0 3.0 0.00 0.02 0.02 40 1012.3
20260506023823 51 327 2.0 2.0 0.00 0.02 0.02 41 1012.3
20260506023320 51 313 2.0 2.0 0.00 0.02 0.02 40 1012.1
20260506022817 51 302 3.0 5.0 0.00 0.02 0.02 40 1012.2
20260506022315 51 313 1.0 1.0 0.00 0.02 0.02 40 1012.1
20260506021813 52 318 2.0 2.0 0.00 0.02 0.02 39 1011.9
20260506021309 52 316 2.0 2.0 0.00 0.02 0.02 38 1011.8
20260506020806 52 309 3.0 5.0 0.00 0.02 0.02 38 1011.7
20260506020304 52 317 2.0 2.0 0.00 0.02 0.02 39 1011.8
20260506015802 52 344 3.0 3.0 0.00 0.02 0.02 37 1011.8
20260506015259 53 325 1.0 1.0 0.00 0.02 0.02 38 1011.6
20260506014755 53 316 2.0 2.0 0.00 0.02 0.02 38 1011.4
20260506014252 53 348 1.0 2.0 0.00 0.02 0.02 36 1011.5
20260506013749 53 311 3.0 3.0 0.00 0.02 0.02 36 1011.5
20260506013246 53 331 5.0 7.0 0.00 0.02 0.02 36 1011.4
20260506012743 53 321 2.0 2.0 0.00 0.02 0.02 38 1011.5
20260506012239 53 307 1.0 2.0 0.00 0.02 0.02 36 1011.3
20260506011737 53 319 1.0 1.0 0.00 0.02 0.02 36 1011.3
20260506011233 53 322 1.0 1.0 0.00 0.02 0.02 35 1010.9
20260506010732 53 313 1.0 1.0 0.00 0.02 0.02 35 1011.0
20260506010228 53 318 1.0 1.0 0.00 0.02 0.02 35 1011.3
20260506005726 53 316 1.0 1.0 0.00 0.02 0.02 36 1011.0
20260506005222 53 312 2.0 3.0 0.00 0.02 0.02 37 1010.6
20260506004718 54 291 5.0 7.0 0.00 0.02 0.02 34 1010.9
20260506004216 54 307 2.0 2.0 0.00 0.02 0.02 34 1010.9
20260506003712 54 314 1.0 1.0 0.00 0.02 0.02 35 1010.7
20260506003208 54 281 3.0 3.0 0.00 0.02 0.02 36 1010.8
20260506002704 54 293 3.0 6.0 0.00 0.02 0.02 35 1010.7
20260506002200 54 283 4.0 5.0 0.00 0.02 0.02 35 1010.5
20260506001656 54 318 5.0 6.0 0.00 0.02 0.02 34 1010.5
20260506001154 55 313 3.0 5.0 0.00 0.02 0.02 34 1010.7
20260506000651 55 310 3.0 3.0 0.00 0.02 0.02 33 1010.4
20260506000148 55 283 5.0 8.0 0.00 0.02 0.02 33 1010.6
20260505235646 55 333 1.0 2.0 0.00 0.02 0.02 34 1010.5
20260505235143 55 330 3.0 5.0 0.00 0.02 0.02 34 1010.5
20260505234640 55 315 3.0 3.0 0.00 0.02 0.02 34 1010.6
20260505234137 55 314 3.0 3.0 0.00 0.02 0.02 35 1010.4
20260505233634 55 316 1.0 2.0 0.00 0.02 0.02 34 1010.3
20260505233132 55 316 3.0 5.0 0.00 0.02 0.02 33 1010.5
20260505232629 55 329 7.0 8.0 0.00 0.02 0.02 33 1010.5
20260505232126 55 317 6.0 7.0 0.00 0.02 0.02 32 1010.4
20260505231623 56 317 4.0 5.0 0.00 0.02 0.02 33 1010.2
20260505231122 56 300 6.0 7.0 0.00 0.02 0.02 33 1010.3
20260505230620 56 324 5.0 6.0 0.00 0.02 0.02 34 1009.9
20260505230115 56 320 5.0 7.0 0.00 0.02 0.02 33 1010.3
20260505225612 56 296 5.0 6.0 0.00 0.02 0.02 33 1009.8
20260505225108 57 317 2.0 2.0 0.00 0.02 0.02 35 1010.0
20260505224605 57 316 2.0 2.0 0.00 0.02 0.02 37 1009.9
20260505224102 57 316 4.0 5.0 0.00 0.02 0.02 33 1010.1
20260505223600 57 333 3.0 3.0 0.00 0.02 0.02 32 1010.2
20260505223056 58 1 6.0 14.0 0.00 0.02 0.02 35 1009.8
20260505222552 58 327 7.0 9.0 0.00 0.02 0.02 32 1010.0
20260505222048 58 316 3.0 5.0 0.00 0.02 0.02 32 1010.0
20260505221546 58 302 5.0 7.0 0.00 0.02 0.02 32 1009.7
20260505221042 57 315 3.0 5.0 0.00 0.02 0.02 31 1009.9
20260505220539 57 328 7.0 10.0 0.00 0.02 0.02 32 1010.0
20260505220037 58 309 3.0 5.0 0.00 0.02 0.02 34 1010.0
20260505215535 57 343 5.0 8.0 0.00 0.02 0.02 32 1009.9
20260505215032 57 308 2.0 3.0 0.00 0.02 0.02 33 1009.9
20260505214530 57 304 2.0 5.0 0.00 0.02 0.02 34 1010.0
20260505214027 57 322 4.0 6.0 0.00 0.02 0.02 32 1010.2
20260505213525 57 291 6.0 7.0 0.00 0.02 0.02 35 1010.2
20260505213021 58 301 4.0 6.0 0.00 0.02 0.02 31 1010.2
20260505212517 58 324 2.0 3.0 0.00 0.02 0.02 30 1010.2
20260505212015 58 326 4.0 6.0 0.00 0.02 0.02 31 1010.6
20260505211512 58 293 5.0 7.0 0.00 0.02 0.02 30 1010.3
20260505211008 59 341 7.0 8.0 0.00 0.02 0.02 30 1010.2
20260505210505 58 296 1.0 1.0 0.00 0.02 0.02 34 1010.1
20260505210002 58 345 5.0 8.0 0.00 0.02 0.02 31 1010.3
20260505205500 59 329 5.0 6.0 0.00 0.02 0.02 32 1010.2
20260505204956 59 342 8.0 11.0 0.00 0.02 0.02 31 1010.5
20260505204455 59 324 4.0 6.0 0.00 0.02 0.02 29 1010.1
20260505203952 59 307 7.0 10.0 0.00 0.02 0.02 31 1010.2
20260505203448 59 298 6.0 9.0 0.00 0.02 0.02 29 1010.4
20260505202944 60 314 4.0 5.0 0.00 0.02 0.02 30 1010.3
20260505202441 60 229 3.0 7.0 0.00 0.02 0.02 31 1010.4
20260505201937 60 311 4.0 5.0 0.00 0.02 0.02 29 1010.7
20260505201434 60 329 5.0 7.0 0.00 0.02 0.02 31 1010.2
20260505200932 59 256 2.0 2.0 0.00 0.02 0.02 33 1010.5
20260505200430 60 281 7.0 9.0 0.00 0.02 0.02 30 1010.5
20260505195925 60 326 5.0 6.0 0.00 0.02 0.02 31 1010.5
20260505195422 60 282 7.0 8.0 0.00 0.02 0.02 30 1010.4
20260505194920 61 354 8.0 10.0 0.00 0.02 0.02 29 1010.7
20260505194417 60 314 1.0 1.0 0.00 0.02 0.02 30 1010.4
20260505193917 61 233 6.0 8.0 0.00 0.02 0.02 33 1010.6
20260505193415 60 326 5.0 9.0 0.00 0.02 0.02 31 1010.7
20260505192913 59 303 4.0 5.0 0.00 0.02 0.02 32 1010.3
20260505192410 59 235 8.0 9.0 0.00 0.02 0.02 31 1010.3
20260505191908 61 252 3.0 3.0 0.00 0.02 0.02 33 1010.8
20260505191406 59 252 3.0 6.0 0.00 0.02 0.02 34 1010.6
20260505190903 60 317 6.0 14.0 0.00 0.02 0.02 32 1010.8
20260505190358 60 287 3.0 3.0 0.00 0.02 0.02 35 1010.7
20260505185853 59 320 3.0 3.0 0.00 0.02 0.02 35 1010.7
20260505185350 60 324 5.0 8.0 0.00 0.02 0.02 33 1010.9
20260505184847 59 333 2.0 2.0 0.00 0.02 0.02 37 1010.8
20260505184344 59 276 2.0 3.0 0.00 0.02 0.02 37 1010.6
20260505183841 59 248 4.0 6.0 0.00 0.02 0.02 33 1010.7
20260505183337 59 247 8.0 11.0 0.00 0.02 0.02 33 1010.8
20260505182834 58 238 5.0 6.0 0.00 0.02 0.02 34 1010.9
20260505182331 58 325 3.0 5.0 0.00 0.02 0.02 33 1010.8
20260505181828 59 251 4.0 6.0 0.00 0.02 0.02 35 1011.2
20260505181325 58 247 3.0 3.0 0.00 0.02 0.02 36 1011.0
20260505180822 57 324 0.0 1.0 0.00 0.02 0.02 35 1011.3
20260505180318 58 273 3.0 5.0 0.00 0.02 0.02 37 1011.4
20260505175815 57 259 2.0 2.0 0.00 0.02 0.02 40 1011.4
20260505175311 58 323 5.0 7.0 0.00 0.02 0.02 37 1011.4
20260505174808 57 330 3.0 5.0 0.00 0.02 0.02 37 1011.5
20260505174305 58 284 1.0 2.0 0.00 0.02 0.02 36 1011.3
20260505173801 59 314 3.0 3.0 0.00 0.02 0.02 34 1011.5
20260505173257 59 316 2.0 2.0 0.00 0.02 0.02 38 1011.6
20260505172754 58 348 1.0 1.0 0.00 0.02 0.02 37 1011.5
20260505172252 57 294 3.0 3.0 0.00 0.02 0.02 37 1011.9
20260505171747 56 312 3.0 3.0 0.00 0.02 0.02 37 1011.7
20260505171244 56 312 4.0 5.0 0.00 0.02 0.02 38 1011.5
20260505170740 56 324 0.0 1.0 0.00 0.02 0.02 39 1011.8
20260505170238 56 291 5.0 6.0 0.00 0.02 0.02 41 1011.8
20260505165733 55 234 4.0 5.0 0.00 0.02 0.02 39 1011.6
20260505165229 56 335 4.0 5.0 0.00 0.02 0.02 38 1011.8
20260505164724 55 330 2.0 2.0 0.00 0.02 0.02 39 1011.8
20260505164222 55 332 1.0 1.0 0.00 0.02 0.02 43 1011.7
20260505163720 55 283 2.0 2.0 0.00 0.02 0.02 41 1011.8
20260505163218 55 332 1.0 2.0 0.00 0.02 0.02 40 1011.9
20260505162715 55 311 3.0 3.0 0.00 0.02 0.02 41 1011.9
20260505162212 55 299 3.0 5.0 0.00 0.02 0.02 39 1011.5
20260505161709 55 320 2.0 2.0 0.00 0.02 0.02 41 1011.8
20260505161207 55 276 2.0 2.0 0.00 0.02 0.02 41 1011.7
20260505160704 55 251 4.0 5.0 0.00 0.02 0.02 43 1012.0
20260505160202 54 339 4.0 6.0 0.00 0.02 0.02 40 1011.6
20260505153141 54 280 3.0 5.0 0.00 0.02 0.02 45 1011.7
20260505152637 53 286 2.0 2.0 0.00 0.02 0.02 43 1011.8
20260505152133 53 303 2.0 2.0 0.00 0.02 0.02 47 1011.8
20260505151628 52 290 3.0 3.0 0.00 0.02 0.02 48 1011.6
20260505151126 52 311 2.0 3.0 0.00 0.02 0.02 44 1011.7
20260505150622 52 297 1.0 1.0 0.00 0.02 0.02 44 1011.7
20260505150119 52 307 1.0 1.0 0.00 0.02 0.02 45 1011.8
20260505140548 50 318 0.0 0.0 0.00 0.02 0.02 53 1011.5